国际通讯卫星-101星 (NSS-101 (INTELSAT 101))

导读

NSS K,又称INTELSAT K,是一颗由荷兰(NL)发射的卫星,于1992年6月10日08:00发射升空,是早期国际通信卫星(Intelsat)家族的重要成员。该卫星主要服务于跨区域通信业务,为全球商业通信、媒体传输提供稳定的空间基础设施支持,是九十年代国际卫星通信网络布局中关键节点,见证了早期全球卫星通信产业发展历程。

基本信息
目录编号:
21989
目录名称:
NSS K (INTELSAT K)
国际标识:
1992-032A
轨道中心:
EARTH
卫星名称:
国际通讯卫星-101星
卫星全名:
国际通讯卫星-101星 (NSS-101 (INTELSAT 101))
卫星状态:
在轨 (已飞行12511 天)
发射日期:
1992-06-10 UTC
国别 :
荷兰 (NL)
星等 :
--
该卫星已列入 空间交会检测服务 Space Conjunction Data Service (SCDS) ,当前飞行风险评估等级: 无高风险
轨道信息
数据来源 国际轨道数据 AOE轨道数据
星历时间 2026-09-11T03:36:03+0800
17小时前
查看轨道信息
2026-09-11T03:00:00+0800
17小时前
查看轨道信息
半长轴 43054.135km 43054.223km
偏心率 0.0077271 0.0077227
轨道倾角 15.041° 15.041°
近地点辐角 4.585° 4.854°
升交点赤经 11.726° 11.729°
平近点角 5.698° 356.664°
近地点 36343.314km 36343.591km
远地点 37008.682km 37008.581km
周期 1481.774分钟 1481.779分钟
每日圈数 0.971808 0.971805
详细信息
卫星平台:
Intelsat VA
平衡模式:
三轴稳定
覆盖范围:
全球
运营商:
国际卫星通信公司
运营商所在国:
美国
制造商(研发单位):
休斯公司
制造商所在国:
美国
使用方式:
暂无
卫星简介
从1965年4月至1984年3月,国际通信卫星组织发射了5代、6种不同性能的卫星共计35颗,除6颗卫星因运载火箭和远地点发动机故障而发射失败外,其余29颗卫星均被送到了预定的静止轨道位置。1984年8月前后,国际通信卫星组织利用部署在大西洋、太平洋、印度洋上空的15颗国际通信卫星,为遍布世界各地170多个国家或地区提供电话、电传、电报、电视和数据传输等电信业务;该卫星已退役。
2D轨道图
3D轨道图
轨道高度分析图
轨道倾角分析图
轨道综合分析图
查看轨道综合分析图
与全量物体交会距离演化趋势
与全量物体交会风险概率演化趋势